Time,TemperatureF,DewpointF,PressureIn,WindDirection,WindDirectionDegrees,WindSpeedMPH,WindSpeedGustMPH,Humidity,HourlyPrecipIn,Conditions,Clouds,dailyrainin,SoftwareType,DateUTC
2013-04-19 00:01:00,57.9,56.2,29.57,SE,125,0.0,0.0,94,0.00,,OVC080,0.00,VWS V14.00,2013-04-19 04:01:00,
2013-04-19 00:06:00,57.9,56.2,29.56,SE,125,0.0,2.0,94,0.00,,OVC080,0.00,VWS V14.00,2013-04-19 04:06:00,
2013-04-19 00:11:00,57.9,56.2,29.56,SE,125,0.0,0.0,94,0.00,,OVC080,0.00,VWS V14.00,2013-04-19 04:11:00,
2013-04-19 00:16:00,57.8,56.1,29.55,SE,125,2.0,3.0,94,0.00,,OVC080,0.00,VWS V14.00,2013-04-19 04:16:00,
2013-04-19 00:21:00,57.8,56.1,29.55,SE,125,0.0,1.0,94,0.00,,OVC080,0.00,VWS V14.00,2013-04-19 04:21:00,
2013-04-19 00:26:00,57.9,56.2,29.55,SSE,158,2.0,3.0,94,0.00,,OVC080,0.00,VWS V14.00,2013-04-19 04:26:00,
2013-04-19 00:31:00,57.9,56.2,29.55,SSE,158,2.0,2.0,94,0.00,,OVC080,0.00,VWS V14.00,2013-04-19 04:31:00,
2013-04-19 00:36:00,57.9,56.2,29.56,SSE,157,0.0,3.0,94,0.00,,OVC080,0.00,VWS V14.00,2013-04-19 04:36:00,
2013-04-19 00:41:00,57.9,56.2,29.55,SSW,192,0.0,0.0,94,0.00,,OVC080,0.00,VWS V14.00,2013-04-19 04:41:00,
2013-04-19 00:46:00,57.8,56.1,29.54,SSW,193,0.0,1.0,94,0.00,,OVC080,0.00,VWS V14.00,2013-04-19 04:46:00,
2013-04-19 00:51:00,57.8,56.1,29.54,SSW,193,0.0,2.0,94,0.00,,OVC080,0.00,VWS V14.00,2013-04-19 04:51:00,
2013-04-19 00:56:00,57.7,56.0,29.53,SSW,193,0.0,2.0,94,0.00,,OVC080,0.00,VWS V14.00,2013-04-19 04:56:00,
2013-04-19 01:01:00,57.7,56.0,29.53,SSW,192,0.0,0.0,94,0.00,,OVC070,0.00,VWS V14.00,2013-04-19 05:01:00,
2013-04-19 01:06:00,57.7,56.0,29.52,SSW,193,0.0,1.0,94,0.00,,OVC070,0.00,VWS V14.00,2013-04-19 05:06:00,
2013-04-19 01:11:00,57.6,55.9,29.52,SSW,193,0.0,0.0,94,0.00,,OVC070,0.00,VWS V14.00,2013-04-19 05:11:00,
2013-04-19 01:16:00,57.5,55.8,29.51,SSW,193,0.0,0.0,94,0.00,,OVC070,0.00,VWS V14.00,2013-04-19 05:16:00,
2013-04-19 01:21:00,57.5,55.8,29.50,SSW,192,0.0,0.0,94,0.00,,OVC070,0.00,VWS V14.00,2013-04-19 05:21:00,
2013-04-19 01:26:00,57.5,55.8,29.50,SSW,193,0.0,3.0,94,0.00,,OVC070,0.00,VWS V14.00,2013-04-19 05:26:00,
2013-04-19 01:31:00,57.5,55.8,29.51,SSW,193,2.0,3.0,94,0.00,,OVC070,0.00,VWS V14.00,2013-04-19 05:31:00,
2013-04-19 01:36:00,57.5,55.8,29.50,SSW,193,0.0,3.0,94,0.00,,OVC070,0.00,VWS V14.00,2013-04-19 05:36:00,
2013-04-19 01:41:00,57.5,55.8,29.49,SSW,192,0.0,0.0,94,0.00,,OVC070,0.00,VWS V14.00,2013-04-19 05:41:00,
2013-04-19 01:46:00,57.5,55.8,29.49,SSW,193,0.0,0.0,94,0.00,,OVC070,0.00,VWS V14.00,2013-04-19 05:46:00,
2013-04-19 01:51:00,57.5,55.8,29.49,SSW,193,0.0,0.0,94,0.01,,OVC070,0.01,VWS V14.00,2013-04-19 05:51:00,
2013-04-19 01:56:00,57.4,55.7,29.48,SSW,193,0.0,0.0,94,0.01,,OVC070,0.01,VWS V14.00,2013-04-19 05:56:00,
2013-04-19 02:01:00,57.4,55.7,29.48,SSW,193,0.0,0.0,94,0.01,,-RA,0.01,VWS V14.00,2013-04-19 06:01:00,
2013-04-19 02:06:00,57.4,55.7,29.48,SSW,193,1.0,2.0,94,0.01,,-RA,0.01,VWS V14.00,2013-04-19 06:06:00,
2013-04-19 02:11:00,57.4,55.7,29.46,SSW,193,2.0,2.0,94,0.01,,-RA,0.01,VWS V14.00,2013-04-19 06:11:00,
2013-04-19 02:16:00,57.5,56.1,29.46,SSW,192,0.0,3.0,95,0.02,,-RA,0.02,VWS V14.00,2013-04-19 06:16:00,
2013-04-19 02:21:00,57.5,56.1,29.45,SSW,192,0.0,2.0,95,0.02,,-RA,0.02,VWS V14.00,2013-04-19 06:21:00,
2013-04-19 02:26:00,57.5,56.1,29.45,SE,125,0.0,5.0,95,0.02,,-RA,0.02,VWS V14.00,2013-04-19 06:26:00,
2013-04-19 02:31:00,57.5,56.1,29.45,SSW,208,0.0,6.0,95,0.03,,-RA,0.03,VWS V14.00,2013-04-19 06:31:00,
2013-04-19 02:36:00,57.6,56.2,29.44,ESE,103,0.0,6.0,95,0.03,,-RA,0.03,VWS V14.00,2013-04-19 06:36:00,
2013-04-19 02:41:00,57.6,56.2,29.44,ESE,103,2.0,3.0,95,0.03,,-RA,0.03,VWS V14.00,2013-04-19 06:41:00,
2013-04-19 02:46:00,57.6,56.2,29.43,SE,142,0.0,3.0,95,0.03,,-RA,0.03,VWS V14.00,2013-04-19 06:46:00,
2013-04-19 02:51:00,57.6,56.2,29.43,SSE,153,0.0,0.0,95,0.03,,-RA,0.03,VWS V14.00,2013-04-19 06:51:00,
2013-04-19 02:56:00,57.7,56.3,29.43,SSE,154,0.0,2.0,95,0.03,,-RA,0.03,VWS V14.00,2013-04-19 06:56:00,
2013-04-19 03:01:00,57.7,56.3,29.42,SSE,154,0.0,0.0,95,0.02,,-RA,0.03,VWS V14.00,2013-04-19 07:01:00,
2013-04-19 03:06:00,57.7,56.3,29.41,SSE,153,0.0,3.0,95,0.02,,-RA,0.03,VWS V14.00,2013-04-19 07:06:00,
2013-04-19 03:11:00,57.6,56.2,29.40,SSE,154,0.0,3.0,95,0.03,,-RA,0.04,VWS V14.00,2013-04-19 07:11:00,
2013-04-19 03:16:00,57.6,56.2,29.39,ESE,111,0.0,5.0,95,0.03,,-RA,0.04,VWS V14.00,2013-04-19 07:16:00,
2013-04-19 03:21:00,57.6,56.2,29.39,SE,129,4.0,6.0,95,0.02,,-RA,0.04,VWS V14.00,2013-04-19 07:21:00,
2013-04-19 03:26:00,57.7,56.3,29.38,SE,129,2.0,6.0,95,0.02,,-RA,0.04,VWS V14.00,2013-04-19 07:26:00,
2013-04-19 03:31:00,57.8,56.4,29.38,ESE,121,0.0,4.0,95,0.01,,-RA,0.04,VWS V14.00,2013-04-19 07:31:00,
2013-04-19 03:36:00,57.8,56.4,29.38,ESE,121,0.0,4.0,95,0.01,,-RA,0.04,VWS V14.00,2013-04-19 07:36:00,
2013-04-19 03:41:00,57.9,56.5,29.37,SE,143,2.0,5.0,95,0.01,,-RA,0.04,VWS V14.00,2013-04-19 07:41:00,
2013-04-19 03:46:00,57.9,56.5,29.37,SE,143,0.0,5.0,95,0.01,,-RA,0.04,VWS V14.00,2013-04-19 07:46:00,
2013-04-19 03:51:00,58.0,56.6,29.37,SE,143,3.0,4.0,95,0.01,,-RA,0.04,VWS V14.00,2013-04-19 07:51:00,
2013-04-19 03:56:00,58.0,56.6,29.37,SSE,155,0.0,4.0,95,0.01,,-RA,0.04,VWS V14.00,2013-04-19 07:56:00,
2013-04-19 04:01:00,58.1,56.7,29.36,SSE,155,0.0,4.0,95,0.02,,-RA,0.05,VWS V14.00,2013-04-19 08:01:00,
2013-04-19 04:06:00,58.1,56.7,29.36,SSE,151,1.0,4.0,95,0.02,,-RA,0.05,VWS V14.00,2013-04-19 08:06:00,
2013-04-19 04:11:00,58.2,56.8,29.36,SSE,167,0.0,1.0,95,0.02,,-RA,0.05,VWS V14.00,2013-04-19 08:11:00,
2013-04-19 04:16:00,58.3,56.9,29.35,SSE,149,0.0,3.0,95,0.02,,-RA,0.05,VWS V14.00,2013-04-19 08:16:00,
2013-04-19 04:21:00,58.4,57.0,29.35,SSE,149,0.0,1.0,95,0.01,,-RA,0.05,VWS V14.00,2013-04-19 08:21:00,
2013-04-19 04:26:00,58.6,57.2,29.35,South,186,3.0,3.0,95,0.01,,-RA,0.05,VWS V14.00,2013-04-19 08:26:00,
2013-04-19 04:31:00,58.7,57.3,29.35,SSE,168,1.0,2.0,95,0.02,,-RA,0.06,VWS V14.00,2013-04-19 08:31:00,
2013-04-19 04:36:00,58.9,57.5,29.35,South,182,1.0,3.0,95,0.03,,-RA,0.07,VWS V14.00,2013-04-19 08:36:00,
2013-04-19 04:41:00,59.0,57.3,29.35,SSW,196,4.0,5.0,94,0.04,,-RA,0.08,VWS V14.00,2013-04-19 08:41:00,
2013-04-19 04:46:00,59.0,57.3,29.34,SSW,198,0.0,5.0,94,0.05,,-RA,0.09,VWS V14.00,2013-04-19 08:46:00,
2013-04-19 04:51:00,59.0,57.3,29.34,South,186,0.0,4.0,94,0.05,,-RA,0.09,VWS V14.00,2013-04-19 08:51:00,
2013-04-19 04:56:00,59.0,57.3,29.34,SSW,211,2.0,5.0,94,0.06,,-RA,0.10,VWS V14.00,2013-04-19 08:56:00,
2013-04-19 05:01:00,59.0,57.3,29.34,SW,225,2.0,4.0,94,0.06,,-RA,0.10,VWS V14.00,2013-04-19 09:01:00,
2013-04-19 05:06:00,59.0,57.3,29.33,SW,220,4.0,6.0,94,0.07,,-RA,0.11,VWS V14.00,2013-04-19 09:06:00,
2013-04-19 05:11:00,59.0,57.3,29.33,SW,217,2.0,9.0,94,0.06,,-RA,0.11,VWS V14.00,2013-04-19 09:11:00,
2013-04-19 05:16:00,59.0,57.3,29.33,SSW,210,4.0,10.0,94,0.06,,-RA,0.11,VWS V14.00,2013-04-19 09:16:00,
2013-04-19 05:21:00,59.0,57.3,29.34,SW,229,3.0,6.0,94,0.06,,-RA,0.11,VWS V14.00,2013-04-19 09:21:00,
2013-04-19 05:26:00,59.0,57.3,29.34,SW,223,9.0,12.0,94,0.06,,-RA,0.11,VWS V14.00,2013-04-19 09:26:00,
2013-04-19 05:31:00,59.0,57.3,29.34,SW,225,9.0,11.0,94,0.06,,-RA,0.12,VWS V14.00,2013-04-19 09:31:00,
2013-04-19 05:36:00,58.6,56.9,29.36,WNW,288,10.0,17.0,94,0.09,,-RA,0.15,VWS V14.00,2013-04-19 09:36:00,
2013-04-19 05:41:00,56.1,53.8,29.37,SW,229,10.0,24.0,92,0.10,,-RA,0.17,VWS V14.00,2013-04-19 09:41:00,
2013-04-19 05:46:00,54.4,51.8,29.37,WSW,244,5.0,24.0,91,0.11,,-RA,0.18,VWS V14.00,2013-04-19 09:46:00,
2013-04-19 05:51:00,53.2,50.9,29.37,WNW,296,7.0,17.0,92,0.10,,-RA,0.19,VWS V14.00,2013-04-19 09:51:00,
2013-04-19 05:56:00,52.4,50.2,29.36,West,263,5.0,17.0,92,0.11,,-RA,0.20,VWS V14.00,2013-04-19 09:56:00,
2013-04-19 06:01:00,51.6,49.4,29.37,West,279,13.0,20.0,92,0.10,,-RA,0.20,VWS V14.00,2013-04-19 10:01:00,
2013-04-19 06:06:00,50.6,48.4,29.36,West,272,6.0,26.0,92,0.10,,-RA,0.20,VWS V14.00,2013-04-19 10:06:00,
2013-04-19 06:11:00,49.9,47.7,29.36,WSW,245,3.0,15.0,92,0.09,,-RA,0.20,VWS V14.00,2013-04-19 10:11:00,
2013-04-19 06:16:00,49.4,47.2,29.37,WSW,254,5.0,21.0,92,0.09,,-RA,0.20,VWS V14.00,2013-04-19 10:16:00,
2013-04-19 06:21:00,49.2,47.0,29.38,West,277,7.0,16.0,92,0.09,,-RA,0.20,VWS V14.00,2013-04-19 10:21:00,
2013-04-19 06:26:00,48.4,46.2,29.39,SW,215,6.0,20.0,92,0.09,,-RA,0.20,VWS V14.00,2013-04-19 10:26:00,
2013-04-19 06:31:00,47.8,45.3,29.40,West,276,13.0,16.0,91,0.08,,-RA,0.20,VWS V14.00,2013-04-19 10:31:00,
2013-04-19 06:36:00,47.4,44.9,29.41,WSW,252,3.0,18.0,91,0.08,,-RA,0.20,VWS V14.00,2013-04-19 10:36:00,
2013-04-19 06:41:00,47.0,44.5,29.40,WNW,294,9.0,13.0,91,0.04,,-RA,0.20,VWS V14.00,2013-04-19 10:41:00,
2013-04-19 06:46:00,46.9,44.4,29.40,West,263,9.0,18.0,91,0.04,,-RA,0.20,VWS V14.00,2013-04-19 10:46:00,
2013-04-19 06:51:00,46.8,44.3,29.40,West,263,10.0,13.0,91,0.01,,-RA,0.20,VWS V14.00,2013-04-19 10:51:00,
2013-04-19 06:56:00,46.5,43.7,29.40,West,267,4.0,19.0,90,0.01,,-RA,0.20,VWS V14.00,2013-04-19 10:56:00,
2013-04-19 07:01:00,46.2,43.4,29.40,West,263,11.0,15.0,90,0.00,,-RA,0.20,VWS V14.00,2013-04-19 11:01:00,
2013-04-19 07:06:00,46.1,43.3,29.40,West,272,11.0,16.0,90,0.01,,-RA,0.21,VWS V14.00,2013-04-19 11:06:00,
2013-04-19 07:11:00,46.0,43.5,29.41,West,265,3.0,8.0,91,0.01,,-RA,0.21,VWS V14.00,2013-04-19 11:11:00,
2013-04-19 07:16:00,45.7,43.2,29.42,WSW,257,8.0,19.0,91,0.02,,-RA,0.22,VWS V14.00,2013-04-19 11:16:00,
2013-04-19 07:21:00,45.2,42.5,29.41,West,271,4.0,13.0,90,0.02,,-RA,0.22,VWS V14.00,2013-04-19 11:21:00,
2013-04-19 07:26:00,44.8,42.0,29.43,West,272,9.0,19.0,90,0.03,,-RA,0.23,VWS V14.00,2013-04-19 11:26:00,
2013-04-19 07:31:00,44.3,41.6,29.43,West,269,2.0,22.0,90,0.03,,-RA,0.23,VWS V14.00,2013-04-19 11:31:00,
2013-04-19 07:36:00,44.1,41.4,29.43,WSW,250,5.0,22.0,90,0.04,,-RA,0.24,VWS V14.00,2013-04-19 11:36:00,
2013-04-19 07:41:00,43.8,41.3,29.44,WNW,292,4.0,16.0,91,0.05,,-RA,0.25,VWS V14.00,2013-04-19 11:41:00,
2013-04-19 07:46:00,43.7,41.2,29.44,WSW,244,3.0,16.0,91,0.05,,-RA,0.25,VWS V14.00,2013-04-19 11:46:00,
2013-04-19 07:51:00,43.3,40.8,29.44,West,272,10.0,13.0,91,0.05,,-RA,0.25,VWS V14.00,2013-04-19 11:51:00,
2013-04-19 07:56:00,42.7,40.0,29.45,West,275,15.0,23.0,90,0.05,,-RA,0.25,VWS V14.00,2013-04-19 11:56:00,
2013-04-19 08:01:00,42.0,39.3,29.45,West,260,7.0,14.0,90,0.05,,-RA,0.25,VWS V14.00,2013-04-19 12:01:00,
2013-04-19 08:06:00,41.4,38.7,29.45,West,275,14.0,22.0,90,0.05,,-RA,0.25,VWS V14.00,2013-04-19 12:06:00,
2013-04-19 08:11:00,41.2,38.5,29.45,West,273,16.0,18.0,90,0.05,,-RA,0.26,VWS V14.00,2013-04-19 12:11:00,
2013-04-19 08:16:00,41.1,38.7,29.46,West,278,3.0,18.0,91,0.05,,-RA,0.26,VWS V14.00,2013-04-19 12:16:00,
2013-04-19 08:21:00,41.3,38.9,29.46,West,259,9.0,16.0,91,0.04,,-RA,0.26,VWS V14.00,2013-04-19 12:21:00,
2013-04-19 08:26:00,41.3,38.6,29.46,SW,226,13.0,21.0,90,0.04,,-RA,0.26,VWS V14.00,2013-04-19 12:26:00,
2013-04-19 08:31:00,41.0,38.3,29.47,WNW,287,7.0,19.0,90,0.03,,-RA,0.26,VWS V14.00,2013-04-19 12:31:00,
2013-04-19 08:36:00,40.6,37.6,29.47,WSW,248,13.0,22.0,89,0.03,,-RA,0.26,VWS V14.00,2013-04-19 12:36:00,
2013-04-19 08:41:00,40.3,37.0,29.47,WSW,252,14.0,24.0,88,0.02,,-RA,0.26,VWS V14.00,2013-04-19 12:41:00,
2013-04-19 08:46:00,40.2,36.9,29.48,West,273,10.0,24.0,88,0.02,,-RA,0.26,VWS V14.00,2013-04-19 12:46:00,
2013-04-19 08:51:00,40.0,36.5,29.48,West,273,5.0,17.0,87,0.01,,-RA,0.26,VWS V14.00,2013-04-19 12:51:00,
2013-04-19 08:56:00,40.0,36.5,29.49,West,261,8.0,19.0,87,0.01,,-RA,0.26,VWS V14.00,2013-04-19 12:56:00,
2013-04-19 09:01:00,40.0,36.7,29.49,WNW,299,4.0,19.0,88,0.01,,OVC050,0.26,VWS V14.00,2013-04-19 13:01:00,
2013-04-19 09:06:00,40.0,36.7,29.49,WSW,243,12.0,19.0,88,0.01,,OVC050,0.26,VWS V14.00,2013-04-19 13:06:00,
2013-04-19 09:11:00,40.0,36.5,29.48,West,268,3.0,19.0,87,0.00,,OVC050,0.26,VWS V14.00,2013-04-19 13:11:00,
2013-04-19 09:16:00,40.1,36.5,29.48,West,273,3.0,19.0,87,0.00,,OVC050,0.26,VWS V14.00,2013-04-19 13:16:00,
2013-04-19 09:21:00,40.1,36.5,29.49,West,268,7.0,19.0,87,0.00,,OVC050,0.26,VWS V14.00,2013-04-19 13:21:00,
2013-04-19 09:26:00,40.0,36.5,29.49,West,279,13.0,21.0,87,0.00,,OVC050,0.26,VWS V14.00,2013-04-19 13:26:00,
2013-04-19 09:31:00,39.7,35.9,29.49,WSW,250,7.0,21.0,86,0.00,,OVC050,0.26,VWS V14.00,2013-04-19 13:31:00,
2013-04-19 09:36:00,39.8,36.0,29.49,WNW,284,3.0,21.0,86,0.00,,OVC050,0.26,VWS V14.00,2013-04-19 13:36:00,
2013-04-19 09:41:00,39.6,35.8,29.49,West,277,19.0,23.0,86,0.00,,OVC050,0.26,VWS V14.00,2013-04-19 13:41:00,
2013-04-19 09:46:00,39.4,35.3,29.49,WSW,256,17.0,26.0,85,0.00,,OVC050,0.26,VWS V14.00,2013-04-19 13:46:00,
2013-04-19 09:51:00,39.5,35.4,29.50,WSW,257,9.0,21.0,85,0.00,,OVC050,0.26,VWS V14.00,2013-04-19 13:51:00,
2013-04-19 09:56:00,39.7,35.6,29.49,SW,236,10.0,21.0,85,0.00,,OVC050,0.26,VWS V14.00,2013-04-19 13:56:00,
2013-04-19 10:01:00,39.7,35.3,29.50,WSW,256,9.0,19.0,84,0.00,,OVC025,0.26,VWS V14.00,2013-04-19 14:01:00,
2013-04-19 10:06:00,40.0,35.3,29.50,West,260,5.0,20.0,83,0.00,,OVC025,0.26,VWS V14.00,2013-04-19 14:06:00,
2013-04-19 10:11:00,40.2,35.2,29.50,West,259,14.0,17.0,82,0.00,,OVC025,0.26,VWS V14.00,2013-04-19 14:11:00,
2013-04-19 10:16:00,40.2,34.8,29.51,WSW,257,13.0,19.0,81,0.00,,OVC025,0.26,VWS V14.00,2013-04-19 14:16:00,
2013-04-19 10:21:00,40.1,34.4,29.51,West,273,12.0,22.0,80,0.00,,OVC025,0.26,VWS V14.00,2013-04-19 14:21:00,
2013-04-19 10:25:00,39.8,33.8,29.51,WNW,282,18.0,22.0,79,0.00,,OVC025,0.26,VWS V14.00,2013-04-19 14:25:00,
2013-04-19 10:30:00,39.7,34.0,29.51,WSW,257,0.0,11.0,80,0.00,,OVC025,0.26,VWS V14.00,2013-04-19 14:30:00,
2013-04-19 10:35:00,39.7,34.0,29.51,West,275,7.0,18.0,80,0.00,,OVC025,0.26,VWS V14.00,2013-04-19 14:35:00,
2013-04-19 10:40:00,39.7,34.0,29.51,WSW,238,6.0,14.0,80,0.00,,OVC025,0.26,VWS V14.00,2013-04-19 14:40:00,
2013-04-19 10:45:00,39.7,34.0,29.52,NW,311,10.0,17.0,80,0.00,,OVC025,0.26,VWS V14.00,2013-04-19 14:45:00,
2013-04-19 10:50:00,39.8,33.8,29.52,WSW,257,5.0,23.0,79,0.00,,OVC025,0.26,VWS V14.00,2013-04-19 14:50:00,
2013-04-19 10:55:00,39.8,33.5,29.53,SW,226,4.0,23.0,78,0.00,,OVC025,0.26,VWS V14.00,2013-04-19 14:55:00,
2013-04-19 11:00:00,39.8,33.5,29.53,West,267,6.0,22.0,78,0.00,,OVC023,0.26,VWS V14.00,2013-04-19 15:00:00,
2013-04-19 11:05:00,39.7,33.4,29.54,West,266,11.0,22.0,78,0.00,,OVC023,0.26,VWS V14.00,2013-04-19 15:05:00,
2013-04-19 11:10:00,39.8,33.5,29.54,WSW,240,4.0,16.0,78,0.00,,OVC023,0.26,VWS V14.00,2013-04-19 15:10:00,
2013-04-19 11:15:00,39.8,33.5,29.54,West,268,20.0,22.0,78,0.00,,OVC023,0.26,VWS V14.00,2013-04-19 15:15:00,
2013-04-19 11:20:00,39.7,33.4,29.55,WSW,253,3.0,12.0,78,0.00,,OVC023,0.26,VWS V14.00,2013-04-19 15:20:00,
2013-04-19 11:25:00,39.7,33.1,29.56,WSW,245,3.0,23.0,77,0.00,,OVC023,0.26,VWS V14.00,2013-04-19 15:25:00,
2013-04-19 11:30:00,39.6,32.3,29.56,West,275,5.0,25.0,75,0.00,,OVC023,0.26,VWS V14.00,2013-04-19 15:30:00,
2013-04-19 11:35:00,39.6,32.3,29.56,WSW,257,10.0,25.0,75,0.00,,OVC023,0.26,VWS V14.00,2013-04-19 15:35:00,
2013-04-19 11:40:00,39.6,32.7,29.56,WSW,244,5.0,13.0,76,0.00,,OVC023,0.26,VWS V14.00,2013-04-19 15:40:00,
2013-04-19 11:45:00,39.7,33.1,29.56,SSW,213,9.0,14.0,77,0.00,,OVC023,0.26,VWS V14.00,2013-04-19 15:45:00,
2013-04-19 11:50:00,39.7,33.1,29.56,WSW,239,8.0,14.0,77,0.00,,OVC023,0.26,VWS V14.00,2013-04-19 15:50:00,
2013-04-19 11:55:00,39.7,32.8,29.56,West,261,9.0,23.0,76,0.00,,OVC023,0.26,VWS V14.00,2013-04-19 15:55:00,
2013-04-19 12:00:00,39.8,33.2,29.57,West,266,4.0,14.0,77,0.00,,OVC029,0.26,VWS V14.00,2013-04-19 16:00:00,
2013-04-19 12:05:00,39.9,33.6,29.57,West,261,6.0,14.0,78,0.00,,OVC029,0.26,VWS V14.00,2013-04-19 16:05:00,
2013-04-19 12:10:00,39.9,33.0,29.57,West,263,4.0,10.0,76,0.00,,OVC029,0.26,VWS V14.00,2013-04-19 16:10:00,
2013-04-19 12:15:00,39.9,33.0,29.57,WSW,257,10.0,19.0,76,0.00,,OVC029,0.26,VWS V14.00,2013-04-19 16:15:00,
2013-04-19 12:20:00,39.8,32.9,29.57,West,275,6.0,21.0,76,0.00,,OVC029,0.26,VWS V14.00,2013-04-19 16:20:00,
2013-04-19 12:25:00,39.8,33.2,29.56,WSW,254,10.0,21.0,77,0.00,,OVC029,0.26,VWS V14.00,2013-04-19 16:25:00,
2013-04-19 12:30:00,39.8,33.5,29.57,SW,233,3.0,19.0,78,0.00,,OVC029,0.26,VWS V14.00,2013-04-19 16:30:00,
2013-04-19 12:35:00,39.7,33.1,29.57,SW,221,7.0,19.0,77,0.00,,OVC029,0.26,VWS V14.00,2013-04-19 16:35:00,
2013-04-19 12:40:00,39.7,32.8,29.57,SSW,209,7.0,19.0,76,0.00,,OVC029,0.26,VWS V14.00,2013-04-19 16:40:00,
2013-04-19 12:45:00,39.6,32.7,29.57,SW,236,25.0,25.0,76,0.00,,OVC029,0.26,VWS V14.00,2013-04-19 16:45:00,
2013-04-19 12:50:00,39.5,32.6,29.57,SW,219,6.0,13.0,76,0.00,,OVC029,0.26,VWS V14.00,2013-04-19 16:50:00,
2013-04-19 12:55:00,39.5,32.9,29.58,West,261,7.0,19.0,77,0.00,,OVC029,0.26,VWS V14.00,2013-04-19 16:55:00,
2013-04-19 13:00:00,39.6,32.7,29.58,SW,218,19.0,24.0,76,0.00,,OVC035,0.26,VWS V14.00,2013-04-19 17:00:00,
2013-04-19 13:05:00,39.7,33.1,29.58,WSW,250,9.0,24.0,77,0.00,,OVC035,0.26,VWS V14.00,2013-04-19 17:05:00,
2013-04-19 13:10:00,40.0,32.7,29.58,West,263,7.0,20.0,75,0.00,,OVC035,0.26,VWS V14.00,2013-04-19 17:10:00,
2013-04-19 13:15:00,40.2,32.9,29.58,West,259,6.0,20.0,75,0.00,,OVC035,0.26,VWS V14.00,2013-04-19 17:15:00,
2013-04-19 13:20:00,40.2,32.6,29.58,WSW,248,12.0,19.0,74,0.00,,OVC035,0.26,VWS V14.00,2013-04-19 17:20:00,
2013-04-19 13:25:00,40.2,32.9,29.58,West,281,9.0,19.0,75,0.00,,OVC035,0.26,VWS V14.00,2013-04-19 17:25:00,
2013-04-19 13:30:00,40.2,33.2,29.58,SW,229,9.0,16.0,76,0.00,,OVC037,0.26,VWS V14.00,2013-04-19 17:30:00,
2013-04-19 13:35:00,40.2,32.9,29.58,WSW,238,5.0,21.0,75,0.00,,OVC037,0.26,VWS V14.00,2013-04-19 17:35:00,
2013-04-19 13:40:00,40.1,33.2,29.58,WSW,246,7.0,15.0,76,0.00,,OVC037,0.26,VWS V14.00,2013-04-19 17:40:00,
2013-04-19 13:45:00,40.1,33.2,29.58,SW,230,8.0,18.0,76,0.00,,OVC037,0.26,VWS V14.00,2013-04-19 17:45:00,
2013-04-19 13:50:00,40.4,33.1,29.58,SW,235,12.0,25.0,75,0.00,,OVC037,0.26,VWS V14.00,2013-04-19 17:50:00,
2013-04-19 13:55:00,41.1,34.1,29.58,SSW,206,17.0,25.0,76,0.00,,OVC037,0.26,VWS V14.00,2013-04-19 17:55:00,
2013-04-19 14:00:00,41.3,33.3,29.58,WSW,250,4.0,15.0,73,0.00,,OVC040,0.26,VWS V14.00,2013-04-19 18:00:00,
2013-04-19 14:05:00,41.2,32.9,29.58,SW,223,7.0,22.0,72,0.00,,OVC040,0.26,VWS V14.00,2013-04-19 18:05:00,
2013-04-19 14:10:00,41.3,33.3,29.58,SSW,213,5.0,22.0,73,0.00,,OVC040,0.26,VWS V14.00,2013-04-19 18:10:00,
2013-04-19 14:15:00,41.2,32.9,29.58,West,265,9.0,26.0,72,0.00,,OVC040,0.26,VWS V14.00,2013-04-19 18:15:00,
2013-04-19 14:20:00,40.9,32.6,29.58,WSW,256,13.0,23.0,72,0.00,,OVC040,0.26,VWS V14.00,2013-04-19 18:20:00,
2013-04-19 14:25:00,40.6,32.6,29.59,SW,229,5.0,23.0,73,0.00,,OVC040,0.26,VWS V14.00,2013-04-19 18:25:00,
2013-04-19 14:30:00,41.0,33.0,29.60,West,279,4.0,15.0,73,0.00,,OVC040,0.26,VWS V14.00,2013-04-19 18:30:00,
2013-04-19 14:35:00,41.1,31.7,29.60,SW,230,7.0,25.0,69,0.00,,OVC040,0.26,VWS V14.00,2013-04-19 18:35:00,
2013-04-19 14:40:00,41.1,32.1,29.60,SW,231,12.0,20.0,70,0.00,,OVC040,0.26,VWS V14.00,2013-04-19 18:40:00,
2013-04-19 14:45:00,41.6,32.6,29.61,WSW,246,9.0,27.0,70,0.00,,OVC040,0.26,VWS V14.00,2013-04-19 18:45:00,
2013-04-19 14:50:00,41.6,32.2,29.61,WNW,298,11.0,21.0,69,0.00,,OVC040,0.26,VWS V14.00,2013-04-19 18:50:00,
2013-04-19 14:55:00,41.6,31.8,29.61,SW,233,6.0,31.0,68,0.00,,OVC040,0.26,VWS V14.00,2013-04-19 18:55:00,
2013-04-19 15:00:00,41.8,32.8,29.61,WSW,258,3.0,20.0,70,0.00,,OVC034,0.26,VWS V14.00,2013-04-19 19:00:00,
2013-04-19 15:05:00,42.0,32.6,29.62,SW,233,10.0,21.0,69,0.00,,OVC034,0.26,VWS V14.00,2013-04-19 19:05:00,
2013-04-19 15:10:00,41.8,32.8,29.62,SW,234,11.0,17.0,70,0.00,,OVC034,0.26,VWS V14.00,2013-04-19 19:10:00,
2013-04-19 15:15:00,41.4,32.0,29.62,WSW,257,9.0,21.0,69,0.00,,OVC034,0.26,VWS V14.00,2013-04-19 19:15:00,
2013-04-19 15:20:00,41.3,32.6,29.63,WNW,303,27.0,27.0,71,0.00,,OVC034,0.26,VWS V14.00,2013-04-19 19:20:00,
2013-04-19 15:25:00,41.0,31.6,29.64,West,267,14.0,27.0,69,0.00,,OVC034,0.26,VWS V14.00,2013-04-19 19:25:00,
2013-04-19 15:30:00,40.9,31.9,29.63,SSW,203,9.0,20.0,70,0.00,,OVC034,0.26,VWS V14.00,2013-04-19 19:30:00,
2013-04-19 15:35:00,41.1,32.1,29.62,West,277,10.0,22.0,70,0.00,,OVC034,0.26,VWS V14.00,2013-04-19 19:35:00,
2013-04-19 15:40:00,41.6,32.9,29.63,WSW,242,5.0,15.0,71,0.00,,OVC034,0.26,VWS V14.00,2013-04-19 19:40:00,
2013-04-19 15:45:00,41.5,31.7,29.63,West,259,12.0,25.0,68,0.00,,OVC034,0.26,VWS V14.00,2013-04-19 19:45:00,
2013-04-19 15:50:00,41.1,31.7,29.63,SW,234,9.0,17.0,69,0.00,,OVC034,0.26,VWS V14.00,2013-04-19 19:50:00,
2013-04-19 15:55:00,40.9,31.9,29.63,SW,221,15.0,19.0,70,0.00,,OVC034,0.26,VWS V14.00,2013-04-19 19:55:00,
2013-04-19 16:00:00,40.7,31.7,29.63,WSW,246,17.0,23.0,70,0.00,,OVC047,0.26,VWS V14.00,2013-04-19 20:00:00,
2013-04-19 16:05:00,40.7,32.0,29.63,SW,223,6.0,23.0,71,0.00,,OVC047,0.26,VWS V14.00,2013-04-19 20:05:00,
2013-04-19 16:10:00,40.8,32.1,29.64,WSW,253,4.0,17.0,71,0.00,,OVC047,0.26,VWS V14.00,2013-04-19 20:10:00,
2013-04-19 16:15:00,41.0,32.7,29.63,WSW,247,10.0,22.0,72,0.00,,OVC047,0.26,VWS V14.00,2013-04-19 20:15:00,
2013-04-19 16:20:00,40.7,31.7,29.64,WSW,240,13.0,13.0,70,0.00,,OVC047,0.26,VWS V14.00,2013-04-19 20:20:00,
2013-04-19 16:25:00,40.5,31.9,29.64,SW,229,9.0,18.0,71,0.00,,OVC047,0.26,VWS V14.00,2013-04-19 20:25:00,
2013-04-19 16:30:00,40.4,31.8,29.65,SSW,211,14.0,21.0,71,0.00,,OVC047,0.26,VWS V14.00,2013-04-19 20:30:00,
2013-04-19 16:35:00,40.3,31.7,29.64,WSW,246,7.0,25.0,71,0.00,,OVC047,0.26,VWS V14.00,2013-04-19 20:35:00,
2013-04-19 16:40:00,40.4,31.8,29.65,SSW,201,11.0,15.0,71,0.00,,OVC047,0.26,VWS V14.00,2013-04-19 20:40:00,
2013-04-19 16:45:00,40.3,32.0,29.65,West,261,13.0,24.0,72,0.00,,OVC047,0.26,VWS V14.00,2013-04-19 20:45:00,
2013-04-19 16:50:00,40.3,32.0,29.66,WNW,287,9.0,12.0,72,0.00,,OVC047,0.26,VWS V14.00,2013-04-19 20:50:00,
2013-04-19 16:55:00,40.6,32.3,29.66,West,259,3.0,22.0,72,0.00,,OVC047,0.26,VWS V14.00,2013-04-19 20:55:00,
2013-04-19 17:00:00,40.8,32.8,29.66,SW,219,3.0,10.0,73,0.00,,OVC050,0.26,VWS V14.00,2013-04-19 21:00:00,
2013-04-19 17:05:00,40.6,32.3,29.67,West,261,7.0,20.0,72,0.00,,OVC050,0.26,VWS V14.00,2013-04-19 21:05:00,
2013-04-19 17:10:00,40.2,31.9,29.67,SW,227,8.0,23.0,72,0.00,,OVC050,0.26,VWS V14.00,2013-04-19 21:10:00,
2013-04-19 17:15:00,40.1,32.5,29.67,SW,234,14.0,23.0,74,0.00,,OVC050,0.26,VWS V14.00,2013-04-19 21:15:00,
2013-04-19 17:20:00,40.0,32.1,29.67,SW,217,3.0,21.0,73,0.00,,OVC050,0.26,VWS V14.00,2013-04-19 21:20:00,
2013-04-19 17:25:00,40.0,32.1,29.68,WSW,258,7.0,21.0,73,0.00,,OVC050,0.26,VWS V14.00,2013-04-19 21:25:00,
2013-04-19 17:30:00,39.9,32.3,29.68,West,273,8.0,17.0,74,0.00,,OVC050,0.26,VWS V14.00,2013-04-19 21:30:00,
2013-04-19 17:35:00,39.9,32.3,29.68,SW,217,5.0,17.0,74,0.00,,OVC050,0.26,VWS V14.00,2013-04-19 21:35:00,
2013-04-19 17:40:00,39.8,32.2,29.68,WSW,245,13.0,17.0,74,0.00,,OVC050,0.26,VWS V14.00,2013-04-19 21:40:00,
2013-04-19 17:45:00,40.0,32.1,29.68,SW,219,10.0,25.0,73,0.00,,OVC050,0.26,VWS V14.00,2013-04-19 21:45:00,
2013-04-19 17:50:00,40.3,32.0,29.69,SSW,209,15.0,15.0,72,0.00,,OVC050,0.26,VWS V14.00,2013-04-19 21:50:00,
2013-04-19 17:55:00,40.4,32.4,29.69,WSW,256,9.0,22.0,73,0.00,,OVC050,0.26,VWS V14.00,2013-04-19 21:55:00,
2013-04-19 18:00:00,40.3,32.3,29.69,WSW,238,14.0,17.0,73,0.00,,,0.26,VWS V14.00,2013-04-19 22:00:00,
2013-04-19 18:05:00,40.1,32.5,29.70,West,260,4.0,20.0,74,0.00,,,0.26,VWS V14.00,2013-04-19 22:05:00,
2013-04-19 18:10:00,40.0,32.7,29.70,SW,214,4.0,14.0,75,0.00,,,0.26,VWS V14.00,2013-04-19 22:10:00,
2013-04-19 18:15:00,39.9,32.6,29.70,WSW,242,4.0,17.0,75,0.00,,,0.26,VWS V14.00,2013-04-19 22:15:00,
2013-04-19 18:20:00,39.9,32.6,29.70,SW,219,15.0,15.0,75,0.00,,,0.26,VWS V14.00,2013-04-19 22:20:00,
2013-04-19 18:25:00,39.9,32.6,29.71,SW,232,9.0,15.0,75,0.00,,,0.26,VWS V14.00,2013-04-19 22:25:00,
2013-04-19 18:30:00,39.8,32.5,29.71,SSW,206,4.0,15.0,75,0.00,,OVC030,0.26,VWS V14.00,2013-04-19 22:30:00,
2013-04-19 18:35:00,39.7,32.4,29.71,WSW,247,7.0,16.0,75,0.00,,OVC030,0.26,VWS V14.00,2013-04-19 22:35:00,
2013-04-19 18:40:00,39.7,32.4,29.71,WSW,257,2.0,16.0,75,0.00,,OVC030,0.26,VWS V14.00,2013-04-19 22:40:00,
2013-04-19 18:45:00,39.6,32.0,29.71,WSW,240,5.0,21.0,74,0.00,,OVC030,0.26,VWS V14.00,2013-04-19 22:45:00,
2013-04-19 18:50:00,39.7,32.1,29.71,SW,222,6.0,13.0,74,0.00,,OVC030,0.26,VWS V14.00,2013-04-19 22:50:00,
2013-04-19 18:55:00,39.6,32.3,29.72,SW,226,13.0,18.0,75,0.00,,OVC030,0.26,VWS V14.00,2013-04-19 22:55:00,
2013-04-19 19:00:00,39.4,32.2,29.72,West,265,7.0,22.0,75,0.00,,OVC050,0.26,VWS V14.00,2013-04-19 23:00:00,
2013-04-19 19:05:00,39.0,32.1,29.72,SSW,213,6.0,22.0,76,0.00,,OVC050,0.26,VWS V14.00,2013-04-19 23:05:00,
2013-04-19 19:10:00,38.8,31.9,29.72,WSW,244,20.0,20.0,76,0.00,,OVC050,0.26,VWS V14.00,2013-04-19 23:10:00,
2013-04-19 19:15:00,38.9,32.0,29.73,WSW,254,6.0,20.0,76,0.00,,OVC050,0.26,VWS V14.00,2013-04-19 23:15:00,
2013-04-19 19:20:00,39.1,31.9,29.73,SW,216,12.0,15.0,75,0.00,,OVC050,0.26,VWS V14.00,2013-04-19 23:20:00,
2013-04-19 19:25:00,39.2,32.0,29.73,West,276,5.0,18.0,75,0.00,,OVC050,0.26,VWS V14.00,2013-04-19 23:25:00,
2013-04-19 19:30:00,39.3,31.7,29.73,WSW,243,12.0,18.0,74,0.00,,OVC050,0.26,VWS V14.00,2013-04-19 23:30:00,
2013-04-19 19:35:00,39.3,31.4,29.73,SW,223,6.0,26.0,73,0.00,,OVC050,0.26,VWS V14.00,2013-04-19 23:35:00,
2013-04-19 19:40:00,39.1,31.5,29.73,SSW,205,9.0,9.0,74,0.00,,OVC050,0.26,VWS V14.00,2013-04-19 23:40:00,
2013-04-19 19:45:00,38.9,31.3,29.73,SW,221,7.0,20.0,74,0.00,,OVC050,0.26,VWS V14.00,2013-04-19 23:45:00,
2013-04-19 19:50:00,38.8,31.6,29.73,SW,229,3.0,12.0,75,0.00,,OVC050,0.26,VWS V14.00,2013-04-19 23:50:00,
2013-04-19 19:55:00,38.8,31.9,29.74,SW,226,4.0,14.0,76,0.00,,OVC050,0.26,VWS V14.00,2013-04-19 23:55:00,
2013-04-19 20:00:00,38.8,31.9,29.74,WSW,243,5.0,24.0,76,0.00,,OVC050,0.26,VWS V14.00,2013-04-20 00:00:00,
2013-04-19 20:05:00,38.8,31.6,29.75,WSW,250,6.0,24.0,75,0.00,,OVC050,0.26,VWS V14.00,2013-04-20 00:05:00,
2013-04-19 20:10:00,38.8,31.9,29.75,WSW,244,5.0,6.0,76,0.00,,OVC050,0.26,VWS V14.00,2013-04-20 00:10:00,
2013-04-19 20:15:00,38.7,31.8,29.76,SSW,211,4.0,17.0,76,0.00,,OVC050,0.26,VWS V14.00,2013-04-20 00:15:00,
2013-04-19 20:20:00,38.7,31.8,29.76,WSW,241,0.0,12.0,76,0.00,,OVC050,0.26,VWS V14.00,2013-04-20 00:20:00,
2013-04-19 20:25:00,38.7,31.8,29.76,SW,223,5.0,15.0,76,0.00,,OVC050,0.26,VWS V14.00,2013-04-20 00:25:00,
2013-04-19 20:30:00,38.6,31.7,29.76,SSW,213,15.0,15.0,76,0.00,,OVC050,0.26,VWS V14.00,2013-04-20 00:30:00,
2013-04-19 20:35:00,38.6,31.7,29.76,WSW,257,4.0,22.0,76,0.00,,OVC050,0.26,VWS V14.00,2013-04-20 00:35:00,
2013-04-19 20:40:00,38.6,32.0,29.76,SSW,211,12.0,13.0,77,0.00,,OVC050,0.26,VWS V14.00,2013-04-20 00:40:00,
2013-04-19 20:45:00,38.4,32.5,29.76,SW,227,2.0,14.0,79,0.00,,OVC050,0.26,VWS V14.00,2013-04-20 00:45:00,
2013-04-19 20:50:00,38.1,32.2,29.76,SW,229,6.0,10.0,79,0.00,,OVC050,0.26,VWS V14.00,2013-04-20 00:50:00,
2013-04-19 20:55:00,38.0,32.4,29.77,SSW,211,3.0,15.0,80,0.00,,OVC050,0.26,VWS V14.00,2013-04-20 00:55:00,
2013-04-19 21:00:00,37.9,32.3,29.77,SW,221,10.0,10.0,80,0.00,,-RA,0.26,VWS V14.00,2013-04-20 01:00:00,
2013-04-19 21:05:00,37.8,32.5,29.77,WSW,249,7.0,16.0,81,0.00,,-RA,0.26,VWS V14.00,2013-04-20 01:05:00,
2013-04-19 21:10:00,37.7,32.4,29.77,SW,226,12.0,13.0,81,0.00,,-RA,0.26,VWS V14.00,2013-04-20 01:10:00,
2013-04-19 21:15:00,37.7,32.4,29.78,SW,233,0.0,13.0,81,0.00,,-RA,0.26,VWS V14.00,2013-04-20 01:15:00,
2013-04-19 21:20:00,37.7,32.4,29.78,SW,233,5.0,8.0,81,0.00,,-RA,0.26,VWS V14.00,2013-04-20 01:20:00,
2013-04-19 21:25:00,37.7,32.4,29.78,WSW,245,3.0,14.0,81,0.00,,-RA,0.26,VWS V14.00,2013-04-20 01:25:00,
2013-04-19 21:30:00,37.6,32.3,29.78,WSW,252,0.0,9.0,81,0.00,,-RA,0.26,VWS V14.00,2013-04-20 01:30:00,
2013-04-19 21:35:00,37.7,32.4,29.78,WSW,248,9.0,13.0,81,0.00,,-RA,0.26,VWS V14.00,2013-04-20 01:35:00,
2013-04-19 21:40:00,37.7,32.1,29.78,SW,235,4.0,15.0,80,0.00,,-RA,0.26,VWS V14.00,2013-04-20 01:40:00,
2013-04-19 21:45:00,37.7,31.5,29.78,SW,222,0.0,15.0,78,0.00,,-RA,0.26,VWS V14.00,2013-04-20 01:45:00,
2013-04-19 21:50:00,37.8,31.6,29.78,WSW,241,7.0,13.0,78,0.00,,-RA,0.26,VWS V14.00,2013-04-20 01:50:00,
2013-04-19 21:55:00,37.9,31.4,29.78,WSW,242,7.0,13.0,77,0.00,,-RA,0.26,VWS V14.00,2013-04-20 01:55:00,
2013-04-19 22:00:00,37.9,31.0,29.79,WSW,246,2.0,7.0,76,0.00,,OVC055,0.26,VWS V14.00,2013-04-20 02:00:00,
2013-04-19 22:05:00,37.9,31.4,29.79,WSW,238,9.0,14.0,77,0.00,,OVC055,0.26,VWS V14.00,2013-04-20 02:05:00,
2013-04-19 22:09:00,37.9,31.4,29.79,SW,215,5.0,9.0,77,0.00,,OVC055,0.26,VWS V14.00,2013-04-20 02:09:00,
2013-04-19 22:14:00,37.9,31.7,29.79,SW,223,13.0,13.0,78,0.00,,OVC055,0.26,VWS V14.00,2013-04-20 02:14:00,
2013-04-19 22:19:00,37.9,31.4,29.79,SW,231,6.0,11.0,77,0.00,,OVC055,0.26,VWS V14.00,2013-04-20 02:19:00,
2013-04-19 22:24:00,37.9,31.4,29.80,WSW,245,5.0,11.0,77,0.00,,OVC055,0.26,VWS V14.00,2013-04-20 02:24:00,
2013-04-19 22:29:00,37.8,31.2,29.79,SW,233,5.0,11.0,77,0.00,,OVC055,0.26,VWS V14.00,2013-04-20 02:29:00,
2013-04-19 22:34:00,37.7,31.1,29.79,SW,234,16.0,16.0,77,0.00,,OVC055,0.26,VWS V14.00,2013-04-20 02:34:00,
2013-04-19 22:39:00,37.5,31.0,29.79,West,273,12.0,20.0,77,0.00,,OVC055,0.26,VWS V14.00,2013-04-20 02:39:00,
2013-04-19 22:44:00,37.4,30.5,29.79,WSW,250,5.0,20.0,76,0.00,,OVC055,0.26,VWS V14.00,2013-04-20 02:44:00,
2013-04-19 22:49:00,37.3,30.4,29.79,West,266,5.0,11.0,76,0.00,,OVC055,0.26,VWS V14.00,2013-04-20 02:49:00,
2013-04-19 22:54:00,37.2,30.4,29.79,West,260,8.0,11.0,76,0.00,,OVC055,0.26,VWS V14.00,2013-04-20 02:54:00,
2013-04-19 22:59:00,37.2,30.4,29.79,West,259,15.0,16.0,76,0.00,,OVC065,0.26,VWS V14.00,2013-04-20 02:59:00,
2013-04-19 23:04:00,37.0,30.1,29.79,WSW,242,9.0,16.0,76,0.00,,OVC065,0.26,VWS V14.00,2013-04-20 03:04:00,
2013-04-19 23:09:00,36.9,30.0,29.79,SW,233,3.0,10.0,76,0.00,,OVC065,0.26,VWS V14.00,2013-04-20 03:09:00,
2013-04-19 23:14:00,36.8,30.0,29.79,WSW,240,3.0,14.0,76,0.00,,OVC065,0.26,VWS V14.00,2013-04-20 03:14:00,
2013-04-19 23:19:00,36.7,30.2,29.80,West,266,0.0,5.0,77,0.00,,OVC065,0.26,VWS V14.00,2013-04-20 03:19:00,
2013-04-19 23:24:00,36.6,30.4,29.79,West,263,3.0,15.0,78,0.00,,OVC065,0.26,VWS V14.00,2013-04-20 03:24:00,
2013-04-19 23:29:00,36.4,30.2,29.79,WSW,242,0.0,9.0,78,0.00,,OVC065,0.26,VWS V14.00,2013-04-20 03:29:00,
2013-04-19 23:34:00,36.3,30.1,29.79,SW,227,9.0,16.0,78,0.00,,OVC065,0.26,VWS V14.00,2013-04-20 03:34:00,
2013-04-19 23:39:00,36.4,30.2,29.80,WSW,247,0.0,11.0,78,0.00,,OVC065,0.26,VWS V14.00,2013-04-20 03:39:00,
2013-04-19 23:44:00,36.3,30.1,29.80,West,260,5.0,13.0,78,0.00,,OVC065,0.26,VWS V14.00,2013-04-20 03:44:00,
2013-04-19 23:49:00,36.3,30.1,29.80,SW,225,5.0,10.0,78,0.00,,OVC065,0.26,VWS V14.00,2013-04-20 03:49:00,
2013-04-19 23:54:00,36.3,30.1,29.80,WSW,252,2.0,16.0,78,0.00,,OVC065,0.26,VWS V14.00,2013-04-20 03:54:00,